sat.trackr.live / text

‹ back to catalog

PRSC-E03

NORAD 68835 · 2026-092A

PAYLOAD ACTIVE UNKNOWN

§ Identity

Operator
Country
PAKI
Launch date
2026-04-25
Launch site
TAISC
Launch vehicle
Mass (kg)
RCS (m²)

Purposes: earth_obs

External: N2YO · Heavens-Above · Gunter

§ Orbital elements

Epoch: 2026-05-25T04:33:18.821088Z

Period
95.58 min
Inclination
38.0002°
Eccentricity
0.0004746
Mean motion
15.06551195 rev/d
Perigee alt
543.5 km
Apogee alt
550.0 km
Semi-major
6,924.9 km
B*
1.6032e-4
RAAN
225.2813°
Arg perigee
215.8433°
Mean anomaly
144.2010°
Rev number
448

§ Raw data

PRSC-E031 68835U 26092A   26145.18980117  .00002309  00000+0  16032-3 0  99902 68835  38.0002 225.2813 0004746 215.8433 144.2010 15.06551195  4481

JSON: /api/v1/satellites/68835 · /tle

For live sub-satellite position, see the globe view (requires WebGL).

§ Visibility from observer

Set your observer location to see the next 7 days of passes ≥ 10°. The values pass through the URL so the page stays shareable.

No JS? Fill the form by hand. The geolocation button needs JavaScript.